Time,TemperatureF,DewpointF,PressureIn,WindDirection,WindDirectionDegrees,WindSpeedMPH,WindSpeedGustMPH,Humidity,HourlyPrecipIn,Conditions,Clouds,dailyrainin,SoftwareType,DateUTC
2013-08-08 00:43:00,59.0,13.0,29.73,North,0,0.0,-999.0,16,0.00,,,-99.99,,2013-08-08 07:43:00,
2013-08-08 00:53:00,59.0,13.0,29.73,North,0,0.0,-999.0,16,0.00,,,-99.99,,2013-08-08 07:53:00,
2013-08-08 01:32:00,58.0,15.0,29.73,SSE,160,3.0,-999.0,18,0.00,,,-99.99,,2013-08-08 08:32:00,
2013-08-08 01:43:00,58.0,15.0,29.73,SSE,160,3.0,-999.0,18,0.00,,,-99.99,,2013-08-08 08:43:00,
2013-08-08 01:52:00,58.0,15.0,29.73,SSE,160,3.0,-999.0,18,0.00,,,-99.99,,2013-08-08 08:52:00,
2013-08-08 02:32:00,58.0,17.0,29.72,North,0,0.0,-999.0,20,0.00,,,-99.99,,2013-08-08 09:32:00,
2013-08-08 02:43:00,58.0,17.0,29.72,North,0,0.0,-999.0,20,0.00,,,-99.99,,2013-08-08 09:43:00,
2013-08-08 02:53:00,58.0,17.0,29.72,North,0,0.0,-999.0,20,0.00,,,-99.99,,2013-08-08 09:53:00,
2013-08-08 03:32:00,57.0,19.0,29.70,North,0,0.0,-999.0,22,0.00,,,-99.99,,2013-08-08 10:32:00,
2013-08-08 03:43:00,57.0,19.0,29.70,North,0,0.0,-999.0,22,0.00,,,-99.99,,2013-08-08 10:43:00,
2013-08-08 03:52:00,57.0,19.0,29.70,North,0,0.0,-999.0,22,0.00,,,-99.99,,2013-08-08 10:52:00,
2013-08-08 04:32:00,56.0,16.0,29.70,North,0,0.0,-999.0,20,0.00,,,-99.99,,2013-08-08 11:32:00,
2013-08-08 04:43:00,56.0,16.0,29.70,North,0,0.0,-999.0,20,0.00,,,-99.99,,2013-08-08 11:43:00,
2013-08-08 04:52:00,56.0,16.0,29.70,North,0,0.0,-999.0,20,0.00,,,-99.99,,2013-08-08 11:52:00,
2013-08-08 05:32:00,56.0,9.0,29.70,South,170,1.0,-999.0,15,0.00,,,-99.99,,2013-08-08 12:32:00,
2013-08-08 05:43:00,56.0,9.0,29.70,South,170,1.0,-999.0,15,0.00,,,-99.99,,2013-08-08 12:43:00,
2013-08-08 05:52:00,56.0,9.0,29.70,South,170,1.0,-999.0,15,0.00,,,-99.99,,2013-08-08 12:52:00,
2013-08-08 06:32:00,55.0,12.0,29.72,North,0,0.0,-999.0,18,0.00,,,-99.99,,2013-08-08 13:32:00,
2013-08-08 06:43:00,55.0,12.0,29.72,North,0,0.0,-999.0,18,0.00,,,-99.99,,2013-08-08 13:43:00,
2013-08-08 06:52:00,55.0,12.0,29.72,North,0,0.0,-999.0,18,0.00,,,-99.99,,2013-08-08 13:52:00,
2013-08-08 07:32:00,56.0,16.0,29.75,North,0,0.0,-999.0,20,0.00,,,-99.99,,2013-08-08 14:32:00,
2013-08-08 07:43:00,56.0,16.0,29.75,North,0,0.0,-999.0,20,0.00,,,-99.99,,2013-08-08 14:43:00,
2013-08-08 07:53:00,56.0,16.0,29.75,North,0,0.0,-999.0,20,0.00,,,-99.99,,2013-08-08 14:53:00,
2013-08-08 08:32:00,58.0,7.0,29.75,South,180,1.0,-999.0,13,0.00,,,-99.99,,2013-08-08 15:32:00,
2013-08-08 08:43:00,58.0,7.0,29.75,South,180,1.0,-999.0,13,0.00,,,-99.99,,2013-08-08 15:43:00,
2013-08-08 08:52:00,58.0,7.0,29.75,South,180,1.0,-999.0,13,0.00,,,-99.99,,2013-08-08 15:52:00,
2013-08-08 09:32:00,61.0,20.0,29.77,North,0,0.0,-999.0,20,0.00,,,-99.99,,2013-08-08 16:32:00,
2013-08-08 09:42:00,61.0,20.0,29.77,North,0,0.0,-999.0,20,0.00,,,-99.99,,2013-08-08 16:42:00,
2013-08-08 09:52:00,61.0,20.0,29.77,North,0,0.0,-999.0,20,0.00,,,-99.99,,2013-08-08 16:52:00,
2013-08-08 10:32:00,63.0,16.0,29.76,South,180,1.0,-999.0,16,0.00,,,-99.99,,2013-08-08 17:32:00,
2013-08-08 10:43:00,63.0,16.0,29.76,South,180,1.0,-999.0,16,0.00,,,-99.99,,2013-08-08 17:43:00,
2013-08-08 10:52:00,63.0,16.0,29.76,South,180,1.0,-999.0,16,0.00,,,-99.99,,2013-08-08 17:52:00,
2013-08-08 11:32:00,65.0,20.0,29.75,SSE,150,5.0,-999.0,18,0.00,,,-99.99,,2013-08-08 18:32:00,
2013-08-08 11:43:00,65.0,20.0,29.75,SSE,150,5.0,-999.0,18,0.00,,,-99.99,,2013-08-08 18:43:00,
2013-08-08 11:52:00,65.0,20.0,29.75,SSE,150,5.0,-999.0,18,0.00,,,-99.99,,2013-08-08 18:52:00,
2013-08-08 12:32:00,66.0,20.0,29.73,West,260,3.0,-999.0,17,0.00,,,-99.99,,2013-08-08 19:32:00,
2013-08-08 12:43:00,66.0,20.0,29.73,West,260,3.0,-999.0,17,0.00,,,-99.99,,2013-08-08 19:43:00,
2013-08-08 12:53:00,66.0,20.0,29.73,West,260,3.0,-999.0,17,0.00,,,-99.99,,2013-08-08 19:53:00,
2013-08-08 13:32:00,65.0,20.0,29.74,WSW,240,4.0,-999.0,18,0.00,,,-99.99,,2013-08-08 20:32:00,
2013-08-08 13:42:00,65.0,20.0,29.74,WSW,240,4.0,-999.0,18,0.00,,,-99.99,,2013-08-08 20:42:00,
2013-08-08 13:52:00,65.0,20.0,29.74,WSW,240,4.0,-999.0,18,0.00,,,-99.99,,2013-08-08 20:52:00,
2013-08-08 14:33:00,65.0,23.0,29.73,SE,140,1.0,-999.0,20,0.00,,,-99.99,,2013-08-08 21:33:00,
2013-08-08 14:43:00,65.0,23.0,29.73,SE,140,1.0,-999.0,20,0.00,,,-99.99,,2013-08-08 21:43:00,
2013-08-08 14:52:00,65.0,23.0,29.73,SE,140,1.0,-999.0,20,0.00,,,-99.99,,2013-08-08 21:52:00,
2013-08-08 14:54:00,65.0,22.0,29.73,SW,230,2.0,-999.0,19,0.00,,,-99.99,,2013-08-08 21:54:00,
2013-08-08 15:33:00,65.0,22.0,29.73,SW,230,2.0,-999.0,19,0.00,,,-99.99,,2013-08-08 22:33:00,
2013-08-08 15:46:00,65.0,22.0,29.73,SW,230,2.0,-999.0,19,0.00,,,-99.99,,2013-08-08 22:46:00,
2013-08-08 16:44:00,65.0,25.0,29.72,SSE,160,1.0,-999.0,22,0.00,,,-99.99,,2013-08-08 23:44:00,
2013-08-08 16:53:00,65.0,25.0,29.72,SSE,160,1.0,-999.0,22,0.00,,,-99.99,,2013-08-08 23:53:00,
2013-08-08 17:45:00,65.0,30.0,29.71,WSW,240,5.0,-999.0,27,0.00,,,-99.99,,2013-08-09 00:45:00,
2013-08-08 17:53:00,65.0,30.0,29.71,WSW,240,5.0,-999.0,27,0.00,,,-99.99,,2013-08-09 00:53:00,
2013-08-08 18:33:00,62.0,29.0,29.71,West,260,2.0,-999.0,29,0.00,,,-99.99,,2013-08-09 01:33:00,
2013-08-08 18:45:00,62.0,29.0,29.71,West,260,2.0,-999.0,29,0.00,,,-99.99,,2013-08-09 01:45:00,
2013-08-08 18:54:00,60.0,33.0,29.72,WSW,250,1.0,-999.0,36,0.00,,,-99.99,,2013-08-09 01:54:00,
2013-08-08 19:44:00,60.0,33.0,29.72,WSW,250,1.0,-999.0,36,0.00,,,-99.99,,2013-08-09 02:44:00,
2013-08-08 20:34:00,57.0,32.0,29.70,SSW,200,1.0,-999.0,39,0.00,,,-99.99,,2013-08-09 03:34:00,
2013-08-08 20:44:00,57.0,32.0,29.70,SSW,200,1.0,-999.0,39,0.00,,,-99.99,,2013-08-09 03:44:00,
2013-08-08 20:52:00,57.0,32.0,29.70,SSW,200,1.0,-999.0,39,0.00,,,-99.99,,2013-08-09 03:52:00,
2013-08-08 21:33:00,56.0,30.0,29.69,SSE,160,2.0,-999.0,37,0.00,,,-99.99,,2013-08-09 04:33:00,
2013-08-08 21:43:00,56.0,30.0,29.69,SSE,160,2.0,-999.0,37,0.00,,,-99.99,,2013-08-09 04:43:00,
2013-08-08 21:53:00,56.0,30.0,29.69,SSE,160,2.0,-999.0,37,0.00,,,-99.99,,2013-08-09 04:53:00,
2013-08-08 22:32:00,55.0,29.0,29.70,North,0,0.0,-999.0,37,0.00,,,-99.99,,2013-08-09 05:32:00,
2013-08-08 22:42:00,55.0,29.0,29.70,North,0,0.0,-999.0,37,0.00,,,-99.99,,2013-08-09 05:42:00,
2013-08-08 22:52:00,55.0,29.0,29.70,North,0,0.0,-999.0,37,0.00,,,-99.99,,2013-08-09 05:52:00,
2013-08-08 23:32:00,54.0,26.0,29.70,South,180,1.0,-999.0,33,0.00,,,-99.99,,2013-08-09 06:32:00,
2013-08-08 23:43:00,54.0,26.0,29.70,South,180,1.0,-999.0,33,0.00,,,-99.99,,2013-08-09 06:43:00,
2013-08-08 23:52:00,54.0,26.0,29.70,South,180,1.0,-999.0,33,0.00,,,-99.99,,2013-08-09 06:52:00,